Location: Kalamazoo
(42.2920°N, 85.5870°W)
Time: 19:16:43
(UTC-05:00)

Daily predictions for brighter satellites

Satellite Brightness Start Highest point End
(mag) Time Altitude Azimuth Time Altitude Azimuth Time Altitude Azimuth
BREEZE M DEB (TANK) 3.3 17:34:14 10° WNW 17:36:32 27° N 17:41:01 10° ENE
Cosmos 1536 3.2 17:35:08 10° N 17:39:04 44° ENE 17:42:58 10° SSE
Cosmos 1461 2.8 17:39:29 10° NW 17:43:28 85° WSW 17:47:25 10° SSE
COSMO-SKYMED 1 4.3 17:41:09 10° NE 17:43:38 15° E 17:46:06 10° SE
APEX 4.5 17:37:09 10° SSW 17:43:58 66° ESE 17:49:27 10° NNE
Hubble Space Telescope 3.6 17:43:00 10° SSW 17:44:07 11° S 17:45:14 10° S
Meteor 1-11 Rocket 3.8 17:41:54 10° N 17:47:29 85° W 17:53:00 10° S
Cosmos 1975 Rocket 3.3 17:44:46 10° SSE 17:48:53 45° E 17:53:00 10° NNE
Cosmos 1606 4.1 17:45:20 10° SSW 17:49:04 42° WNW 17:52:49 10° N
Ariane Rocket 4.4 17:44:31 10° S 17:49:21 44° W 17:54:13 10° NNW
Cosmos 372 Rocket 4.2 17:44:30 10° S 17:49:34 52° ESE 17:54:40 10° NNE
USA 234 3.5 17:43:49 10° NE 17:50:19 69° NW 17:56:47 10° WSW
MSX 4.3 17:45:34 10° SE 17:50:51 40° ENE 17:56:10 10° N
SMAP 3.2 17:47:28 10° SSE 17:51:59 54° ENE 17:56:32 10° N
AQUARIUS 4.3 17:48:19 10° SSE 17:52:42 54° ENE 17:57:06 10° N
Okean 3 3.4 17:49:16 10° S 17:53:33 77° E 17:57:50 10° N
SJ-12 3.9 17:50:01 10° SSE 17:54:01 59° ENE 17:58:05 10° N
Cosmos 2263 Rocket 3.2 17:49:44 10° SW 17:55:07 47° WNW 18:00:34 10° NNE
Thor Agena Rocket 3.6 17:51:17 10° NNE 17:56:25 60° ESE 18:01:36 10° S
NOSS 3-1 (A) 4.3 17:48:52 10° NW 17:56:30 79° WSW 18:04:50 10° SSE
CZ-3B DEB 2.7 17:54:54 10° S 17:58:08 34° ESE 18:05:05 11° NE
Cosmos 1125 Rocket 3.6 17:53:24 10° SSW 17:58:42 88° WNW 18:04:04 10° NNE
CZ-4 R/B 1.4 17:56:07 10° SSE 18:00:19 86° ENE 18:04:31 10° NNW
Cosmos 1269 Rocket 4.2 17:56:41 10° NNW 18:02:01 83° WSW 18:07:19 10° SSE
USA 116 4.5 17:57:05 10° NNE 18:02:29 74° ESE 18:07:46 10° S
ATLAS 2AS CENTAUR R/B 3.2 18:00:46 10° NNW 18:08:39 51° NE 18:16:05 10° ESE
Cosmos 1812 3.7 18:05:59 10° SSE 18:09:12 26° E 18:12:08 12° NE
SL-8 Rocket 4.0 18:03:21 10° N 18:09:28 61° E 18:15:32 10° SSE
Cosmos 2251 Rocket 4.0 18:07:06 10° N 18:12:07 38° ENE 18:17:04 10° SE
YAOGAN 1 2.5 18:08:08 10° SSE 18:12:27 81° ENE 18:16:48 10° N
Cosmos 1633 4.0 18:09:58 10° NNW 18:13:23 41° W 18:16:45 10° SSW
Abrixas 4.0 18:14:42 10° WNW 18:17:14 25° N 18:18:36 18° NE
Cosmos 2366 rocket 4.1 18:12:43 10° N 18:18:56 53° ENE 18:25:05 10° SSE
Cosmos 1975 3.8 18:15:49 10° NNE 18:19:14 25° ENE 18:22:37 10° SE
Cosmos 2218 Rocket 4.0 18:13:06 10° N 18:19:22 61° E 18:25:30 10° SSE
Cosmos 2181 Rocket 4.1 18:13:13 10° S 18:19:33 84° W 18:26:01 10° N
OTV 4 2.2 18:18:20 10° WSW 18:20:58 27° S 18:23:24 11° SE
Cosmos 1844 Rocket 2.7 18:16:19 10° SSW 18:21:50 66° ESE 18:27:25 10° NNE
Cosmos 1959 Rocket 4.4 18:19:53 10° N 18:26:02 68° E 18:32:13 10° SSE
Cosmos 1844 3.8 18:23:26 10° S 18:28:51 56° ESE 18:33:29 14° NE
SL-27 R/B 2.6 18:25:37 10° N 18:29:14 55° ENE 18:32:49 10° SSE
GEOS 3 Rocket 3.5 18:26:16 10° SE 18:31:20 65° NE 18:36:24 10° NNW
Meteor 2-19 Rocket 4.3 18:25:26 10° N 18:31:32 80° E 18:37:34 10° S
SKYMED 2 3.8 18:27:56 11° NNE 18:32:03 47° E 18:36:14 10° S
Cosmos 1455 Rocket 3.0 18:31:06 10° N 18:35:28 61° E 18:39:50 10° SSE
ISS -3.4 18:34:25 10° SW 18:37:43 83° SE 18:38:49 39° ENE
BREEZE-M R/B 4.4 18:34:04 10° SW 18:44:48 60° SSE 18:47:38 29° ENE
COSMOS 2406 4.0 18:39:40 10° NNW 18:45:16 55° WSW 18:50:50 10° S
Cosmos 2278 Rocket 2.4 18:41:51 10° S 18:47:14 48° ESE 18:50:04 26° NE
Cosmos 1484 Rocket 2.8 18:51:53 10° S 18:55:39 74° WSW 18:59:24 10° NNW
CZ-2C R/B 4.1 18:51:30 10° SSW 18:56:00 36° W 19:00:40 10° NNW
Cosmos 1238 Rocket 3.2 19:00:39 10° SSW 19:03:31 43° W 19:04:44 27° NNW
Cosmos 2082 Rocket 2.9 19:06:36 10° N 19:10:50 34° NE 19:10:50 34° NE
Nadezhda 3 Rocket 3.9 19:09:04 10° S 19:15:10 68° E 19:21:20 10° NNE
Okean 1 3.6 19:12:09 10° SSW 19:16:10 67° W 19:17:54 32° N
Cosmos 1833 Rocket 3.7 19:14:50 10° N 19:18:13 29° NNE 19:18:13 29° NNE
COSMO-SKYMED 1 3.4 19:16:32 14° N 19:20:05 50° WNW 19:24:16 10° SSW
Meteor 2-21 4.4 19:17:12 10° N 19:23:26 90° W 19:29:35 10° S
Meteor 1-28 Rocket 3.7 19:29:51 58° WSW 19:29:51 58° WSW 19:33:16 10° SSW
USA 234 4.5 19:29:59 23° NNE 19:32:38 31° NNW 19:38:10 10° WNW
METEOR-M 4.1 19:32:53 10° S 19:38:13 79° WSW 19:43:36 10° NNW
Cosmos 1346 Rocket 3.9 19:35:49 10° SSW 19:38:33 39° SW 19:38:33 39° SW
NOAA 12 4.5 19:35:54 10° S 19:41:08 63° WSW 19:46:23 10° NNW
Meteor 2-14 Rocket 4.5 19:42:12 10° N 19:48:22 78° W 19:54:30 10° S
NOSS 3-3 (A) 4.1 19:44:57 10° SW 19:51:09 72° NW 19:52:24 57° N
NOSS 3-3 (C) 4.1 19:45:03 10° SW 19:51:14 73° NW 19:52:28 58° N
ATLAS 2AS CENTAUR R/B 4.0 19:52:10 10° NW 19:59:37 43° WSW 20:06:33 10° S
FALCON 9 R/B 3.4 19:44:20 10° WSW 20:00:51 49° S 20:01:52 46° SSE
Timation 2 Rocket 4.3 20:06:02 10° NNW 20:12:50 72° WSW 20:13:13 71° SW
ATLAS 3B CENTAUR R/B 4.2 20:11:25 10° WSW 20:21:17 27° SSW 20:22:04 27° S
Cosmos 2278 Rocket 3.9 20:26:48 10° WSW 20:31:32 27° NW 20:31:57 27° NW
CZ-3B DEB 3.8 20:27:56 10° W 20:33:29 47° NNW 20:34:11 46° N
Cosmos 2082 Rocket 4.4 20:50:48 10° NW 20:52:44 20° NW 20:52:44 20° NW
